Year,Month,Day,Hour,Minute,Value (Times are PST for temperature in C)
2021,06,23,00,00,14.10
2021,06,23,00,01,14.10
2021,06,23,00,02,14.10
2021,06,23,00,03,14.10
2021,06,23,00,04,14.10
2021,06,23,00,05,14.10
2021,06,23,00,06,14.10
2021,06,23,00,07,14.00
2021,06,23,00,08,14.00
2021,06,23,00,09,14.00
2021,06,23,00,10,14.00
2021,06,23,00,11,14.00
2021,06,23,00,12,14.00
2021,06,23,00,13,14.00
2021,06,23,00,14,14.00
2021,06,23,00,15,14.00
2021,06,23,00,16,14.00
2021,06,23,00,17,13.90
2021,06,23,00,18,13.90
2021,06,23,00,19,13.90
2021,06,23,00,20,13.90
2021,06,23,00,21,13.90
2021,06,23,00,22,13.90
2021,06,23,00,23,13.90
2021,06,23,00,24,13.90
2021,06,23,00,25,13.90
2021,06,23,00,26,13.90
2021,06,23,00,27,13.90
2021,06,23,00,28,13.90
2021,06,23,00,29,13.80
2021,06,23,00,30,13.80
2021,06,23,00,31,13.80
2021,06,23,00,32,13.80
2021,06,23,00,33,13.80
2021,06,23,00,34,13.80
2021,06,23,00,35,13.80
2021,06,23,00,36,13.80
2021,06,23,00,37,13.80
2021,06,23,00,38,13.80
2021,06,23,00,39,13.70
2021,06,23,00,40,13.70
2021,06,23,00,41,13.70
2021,06,23,00,42,13.70
2021,06,23,00,43,13.70
2021,06,23,00,44,13.70
2021,06,23,00,45,13.70
2021,06,23,00,46,13.70
2021,06,23,00,47,13.60
2021,06,23,00,48,13.60
2021,06,23,00,49,13.60
2021,06,23,00,50,13.60
2021,06,23,00,51,13.60
2021,06,23,00,52,13.60
2021,06,23,00,53,13.60
2021,06,23,00,54,13.50
2021,06,23,00,55,13.60
2021,06,23,00,56,13.60
2021,06,23,00,57,13.50
2021,06,23,00,58,13.50
2021,06,23,00,59,13.50
2021,06,23,01,00,13.50
2021,06,23,01,01,13.50
2021,06,23,01,02,13.50
2021,06,23,01,03,13.50
2021,06,23,01,04,13.50
2021,06,23,01,05,13.50
2021,06,23,01,06,13.40
2021,06,23,01,07,13.40
2021,06,23,01,08,13.40
2021,06,23,01,09,13.40
2021,06,23,01,10,13.40
2021,06,23,01,11,13.40
2021,06,23,01,12,13.40
2021,06,23,01,13,13.30
2021,06,23,01,14,13.30
2021,06,23,01,15,13.30
2021,06,23,01,16,13.30
2021,06,23,01,17,13.30
2021,06,23,01,18,13.30
2021,06,23,01,19,13.30
2021,06,23,01,20,13.30
2021,06,23,01,21,13.30
2021,06,23,01,22,13.30
2021,06,23,01,23,13.30
2021,06,23,01,24,13.30
2021,06,23,01,25,13.30
2021,06,23,01,26,13.30
2021,06,23,01,27,13.30
2021,06,23,01,28,13.30
2021,06,23,01,29,13.30
2021,06,23,01,30,13.30
2021,06,23,01,31,13.30
2021,06,23,01,32,13.30
2021,06,23,01,33,13.30
2021,06,23,01,34,13.30
2021,06,23,01,35,13.30
2021,06,23,01,36,13.30
2021,06,23,01,37,13.30
2021,06,23,01,38,13.30
2021,06,23,01,39,13.30
2021,06,23,01,40,13.30
2021,06,23,01,41,13.30
2021,06,23,01,42,13.30
2021,06,23,01,43,13.30
2021,06,23,01,44,13.30
2021,06,23,01,45,13.30
2021,06,23,01,46,13.30
2021,06,23,01,47,13.30
2021,06,23,01,48,13.30
2021,06,23,01,49,13.30
2021,06,23,01,50,13.30
2021,06,23,01,51,13.30
2021,06,23,01,52,13.30
2021,06,23,01,53,13.30
2021,06,23,01,54,13.30
2021,06,23,01,55,13.30
2021,06,23,01,56,13.30
2021,06,23,01,57,13.30
2021,06,23,01,58,13.30
2021,06,23,01,59,13.30
2021,06,23,02,00,13.30
2021,06,23,02,01,13.30
2021,06,23,02,02,13.30
2021,06,23,02,03,13.30
2021,06,23,02,04,13.30
2021,06,23,02,05,13.30
2021,06,23,02,06,13.30
2021,06,23,02,07,13.20
2021,06,23,02,08,13.20
2021,06,23,02,09,13.20
2021,06,23,02,10,13.20
2021,06,23,02,11,13.20
2021,06,23,02,12,13.20
2021,06,23,02,13,13.20
2021,06,23,02,14,13.20
2021,06,23,02,15,13.20
2021,06,23,02,16,13.20
2021,06,23,02,17,13.20
2021,06,23,02,18,13.20
2021,06,23,02,19,13.10
2021,06,23,02,20,13.10
2021,06,23,02,21,13.10
2021,06,23,02,22,13.10
2021,06,23,02,23,13.10
2021,06,23,02,24,13.10
2021,06,23,02,25,13.10
2021,06,23,02,26,13.10
2021,06,23,02,27,13.00
2021,06,23,02,28,13.00
2021,06,23,02,29,13.00
2021,06,23,02,30,13.00
2021,06,23,02,31,12.90
2021,06,23,02,32,12.90
2021,06,23,02,33,12.90
2021,06,23,02,34,12.90
2021,06,23,02,35,12.90
2021,06,23,02,36,12.90
2021,06,23,02,37,12.90
2021,06,23,02,38,12.80
2021,06,23,02,39,12.80
2021,06,23,02,40,12.80
2021,06,23,02,41,12.80
2021,06,23,02,42,12.80
2021,06,23,02,43,12.80
2021,06,23,02,44,12.80
2021,06,23,02,45,12.80
2021,06,23,02,46,12.80
2021,06,23,02,47,12.80
2021,06,23,02,48,12.80
2021,06,23,02,49,12.80
2021,06,23,02,50,12.80
2021,06,23,02,51,12.80
2021,06,23,02,52,12.80
2021,06,23,02,53,12.80
2021,06,23,02,54,12.80
2021,06,23,02,55,12.80
2021,06,23,02,56,12.80
2021,06,23,02,57,12.80
2021,06,23,02,58,12.70
2021,06,23,02,59,12.70
2021,06,23,03,00,12.70
2021,06,23,03,01,12.60
2021,06,23,03,02,12.60
2021,06,23,03,03,12.60
2021,06,23,03,04,12.50
2021,06,23,03,05,12.50
2021,06,23,03,06,12.50
2021,06,23,03,07,12.40
2021,06,23,03,08,12.40
2021,06,23,03,09,12.40
2021,06,23,03,10,12.40
2021,06,23,03,11,12.30
2021,06,23,03,12,12.30
2021,06,23,03,13,12.30
2021,06,23,03,14,12.30
2021,06,23,03,15,12.30
2021,06,23,03,16,12.30
2021,06,23,03,17,12.20
2021,06,23,03,18,12.20
2021,06,23,03,19,12.20
2021,06,23,03,20,12.20
2021,06,23,03,21,12.20
2021,06,23,03,22,12.20
2021,06,23,03,23,12.10
2021,06,23,03,24,12.10
2021,06,23,03,25,12.10
2021,06,23,03,26,12.10
2021,06,23,03,27,12.10
2021,06,23,03,28,12.10
2021,06,23,03,29,12.10
2021,06,23,03,30,12.10
2021,06,23,03,31,12.10
2021,06,23,03,32,12.10
2021,06,23,03,33,12.10
2021,06,23,03,34,12.10
2021,06,23,03,35,12.20
2021,06,23,03,36,12.20
2021,06,23,03,37,12.20
2021,06,23,03,38,12.20
2021,06,23,03,39,12.30
2021,06,23,03,40,12.30
2021,06,23,03,41,12.30
2021,06,23,03,42,12.30
2021,06,23,03,43,12.30
2021,06,23,03,44,12.30
2021,06,23,03,45,12.30
2021,06,23,03,46,12.30
2021,06,23,03,47,12.30
2021,06,23,03,48,12.30
2021,06,23,03,49,12.30
2021,06,23,03,50,12.30
2021,06,23,03,51,12.30
2021,06,23,03,52,12.30
2021,06,23,03,53,12.30
2021,06,23,03,54,12.30
2021,06,23,03,55,12.30
2021,06,23,03,56,12.30
2021,06,23,03,57,12.30
2021,06,23,03,58,12.30
2021,06,23,03,59,12.30
2021,06,23,04,00,12.30
2021,06,23,04,01,12.30
2021,06,23,04,02,12.30
2021,06,23,04,03,12.30
2021,06,23,04,04,12.30
2021,06,23,04,05,12.30
2021,06,23,04,06,12.30
2021,06,23,04,07,12.30
2021,06,23,04,08,12.30
2021,06,23,04,09,12.30
2021,06,23,04,10,12.30
2021,06,23,04,11,12.30
2021,06,23,04,12,12.30
2021,06,23,04,13,12.30
2021,06,23,04,14,12.20
2021,06,23,04,15,12.20
2021,06,23,04,16,12.20
2021,06,23,04,17,12.20
2021,06,23,04,18,12.20
2021,06,23,04,19,12.10
2021,06,23,04,20,12.10
2021,06,23,04,21,12.10
2021,06,23,04,22,12.10
2021,06,23,04,23,12.10
2021,06,23,04,24,12.10
2021,06,23,04,25,12.10
2021,06,23,04,26,12.10
2021,06,23,04,27,12.10
2021,06,23,04,28,12.10
2021,06,23,04,29,12.10
2021,06,23,04,30,12.10
2021,06,23,04,31,12.00
2021,06,23,04,32,12.00
2021,06,23,04,33,12.00
2021,06,23,04,34,12.00
2021,06,23,04,35,12.00
2021,06,23,04,36,12.00
2021,06,23,04,37,12.00
2021,06,23,04,38,12.00
2021,06,23,04,39,12.00
2021,06,23,04,40,11.90
2021,06,23,04,41,11.90
2021,06,23,04,42,11.90
2021,06,23,04,43,11.90
2021,06,23,04,44,11.90
2021,06,23,04,45,11.90
2021,06,23,04,46,11.90
2021,06,23,04,47,11.90
2021,06,23,04,48,11.90
2021,06,23,04,49,11.90
2021,06,23,04,50,11.90
2021,06,23,04,51,11.90
2021,06,23,04,52,11.90
2021,06,23,04,53,11.80
2021,06,23,04,54,11.80
2021,06,23,04,55,11.80
2021,06,23,04,56,11.80
2021,06,23,04,57,11.80
2021,06,23,04,58,11.80
2021,06,23,04,59,11.80
2021,06,23,05,00,11.70
2021,06,23,05,01,11.70
2021,06,23,05,02,11.70
2021,06,23,05,03,11.70
2021,06,23,05,04,11.70
2021,06,23,05,05,11.70
2021,06,23,05,06,11.70
2021,06,23,05,07,11.70
2021,06,23,05,08,11.70
2021,06,23,05,09,11.70
2021,06,23,05,10,11.70
2021,06,23,05,11,11.70
2021,06,23,05,12,11.70
2021,06,23,05,13,11.70
2021,06,23,05,14,11.70
2021,06,23,05,15,11.70
2021,06,23,05,16,11.60
2021,06,23,05,17,11.60
2021,06,23,05,18,11.60
2021,06,23,05,19,11.60
2021,06,23,05,20,11.60
2021,06,23,05,21,11.60
2021,06,23,05,22,11.60
2021,06,23,05,23,11.60
2021,06,23,05,24,11.60
2021,06,23,05,25,11.60
2021,06,23,05,26,11.60
2021,06,23,05,27,11.60
2021,06,23,05,28,11.60
2021,06,23,05,29,11.60
2021,06,23,05,30,11.60
2021,06,23,05,31,11.60
2021,06,23,05,32,11.60
2021,06,23,05,33,11.60
2021,06,23,05,34,11.60
2021,06,23,05,35,11.60
2021,06,23,05,36,11.60
2021,06,23,05,37,11.60
2021,06,23,05,38,11.50
2021,06,23,05,39,11.60
2021,06,23,05,40,11.60
2021,06,23,05,41,11.60
2021,06,23,05,42,11.60
2021,06,23,05,43,11.60
2021,06,23,05,44,11.60
2021,06,23,05,45,11.60
2021,06,23,05,46,11.60
2021,06,23,05,47,11.60
2021,06,23,05,48,11.60
2021,06,23,05,49,11.60
2021,06,23,05,50,11.60
2021,06,23,05,51,11.70
2021,06,23,05,52,11.70
2021,06,23,05,53,11.70
2021,06,23,05,54,11.70
2021,06,23,05,55,11.70
2021,06,23,05,56,11.70
2021,06,23,05,57,11.70
2021,06,23,05,58,11.70
2021,06,23,05,59,11.70
2021,06,23,06,00,11.70
2021,06,23,06,01,11.70
2021,06,23,06,02,11.70
2021,06,23,06,03,11.80
2021,06,23,06,04,11.80
2021,06,23,06,05,11.80
2021,06,23,06,06,11.80
2021,06,23,06,07,11.90
2021,06,23,06,08,11.90
2021,06,23,06,09,11.90
2021,06,23,06,10,12.00
2021,06,23,06,11,12.00
2021,06,23,06,12,12.00
2021,06,23,06,13,12.10
2021,06,23,06,14,12.10
2021,06,23,06,15,12.10
2021,06,23,06,16,12.10
2021,06,23,06,17,12.10
2021,06,23,06,18,12.20
2021,06,23,06,19,12.20
2021,06,23,06,20,12.20
2021,06,23,06,21,12.20
2021,06,23,06,22,12.20
2021,06,23,06,23,12.20
2021,06,23,06,24,12.20
2021,06,23,06,25,12.20
2021,06,23,06,26,12.20
2021,06,23,06,27,12.20
2021,06,23,06,28,12.20
2021,06,23,06,29,12.30
2021,06,23,06,30,12.30
2021,06,23,06,31,12.30
2021,06,23,06,32,12.30
2021,06,23,06,33,12.30
2021,06,23,06,34,12.30
2021,06,23,06,35,12.30
2021,06,23,06,36,12.40
2021,06,23,06,37,12.40
2021,06,23,06,38,12.40
2021,06,23,06,39,12.50
2021,06,23,06,40,12.50
2021,06,23,06,41,12.50
2021,06,23,06,42,12.60
2021,06,23,06,43,12.60
2021,06,23,06,44,12.60
2021,06,23,06,45,12.60
2021,06,23,06,46,12.70
2021,06,23,06,47,12.70
2021,06,23,06,48,12.70
2021,06,23,06,49,12.80
2021,06,23,06,50,12.80
2021,06,23,06,51,12.80
2021,06,23,06,52,12.80
2021,06,23,06,53,12.80
2021,06,23,06,54,12.90
2021,06,23,06,55,12.90
2021,06,23,06,56,12.90
2021,06,23,06,57,13.00
2021,06,23,06,58,13.10
2021,06,23,06,59,13.10
2021,06,23,07,00,13.10
2021,06,23,07,01,13.20
2021,06,23,07,02,13.20
2021,06,23,07,03,13.30
2021,06,23,07,04,13.30
2021,06,23,07,05,13.30
2021,06,23,07,06,13.30
2021,06,23,07,07,13.30
2021,06,23,07,08,13.40
2021,06,23,07,09,13.40
2021,06,23,07,10,13.40
2021,06,23,07,11,13.50
2021,06,23,07,12,13.50
2021,06,23,07,13,13.60
2021,06,23,07,14,13.60
2021,06,23,07,15,13.70
2021,06,23,07,16,13.70
2021,06,23,07,17,13.80
2021,06,23,07,18,13.90
2021,06,23,07,19,14.00
2021,06,23,07,20,14.00
2021,06,23,07,21,14.10
2021,06,23,07,22,14.10
2021,06,23,07,23,14.20
2021,06,23,07,24,14.20
2021,06,23,07,25,14.30
2021,06,23,07,26,14.30
2021,06,23,07,27,14.30
2021,06,23,07,28,14.40
2021,06,23,07,29,14.50
2021,06,23,07,30,14.50
2021,06,23,07,31,14.60
2021,06,23,07,32,14.60
2021,06,23,07,33,14.70
2021,06,23,07,34,14.70
2021,06,23,07,35,14.80
2021,06,23,07,36,14.80
2021,06,23,07,37,14.90
2021,06,23,07,38,14.90
2021,06,23,07,39,15.00
2021,06,23,07,40,15.00
2021,06,23,07,41,15.10
2021,06,23,07,42,15.20
2021,06,23,07,43,15.20
2021,06,23,07,44,15.20
2021,06,23,07,45,15.20
2021,06,23,07,46,15.30
2021,06,23,07,47,15.40
2021,06,23,07,48,15.50
2021,06,23,07,49,15.50
2021,06,23,07,50,15.60
2021,06,23,07,51,15.60
2021,06,23,07,52,15.70
2021,06,23,07,53,15.70
2021,06,23,07,54,15.80
2021,06,23,07,55,15.80
2021,06,23,07,56,15.80
2021,06,23,07,57,15.80
2021,06,23,07,58,15.80
2021,06,23,07,59,15.80
2021,06,23,08,00,15.90
2021,06,23,08,01,16.00
2021,06,23,08,02,16.10
2021,06,23,08,03,16.20
2021,06,23,08,04,16.20
2021,06,23,08,05,16.30
2021,06,23,08,06,16.40
2021,06,23,08,07,16.50
2021,06,23,08,08,16.50
2021,06,23,08,09,16.60
2021,06,23,08,10,16.60
2021,06,23,08,11,16.60
2021,06,23,08,12,16.60
2021,06,23,08,13,16.60
2021,06,23,08,14,16.70
2021,06,23,08,15,16.70
2021,06,23,08,16,16.70
2021,06,23,08,17,16.80
2021,06,23,08,18,16.80
2021,06,23,08,19,16.90
2021,06,23,08,20,16.90
2021,06,23,08,21,17.00
2021,06,23,08,22,17.00
2021,06,23,08,23,17.00
2021,06,23,08,24,17.00
2021,06,23,08,25,17.00
2021,06,23,08,26,17.00
2021,06,23,08,27,17.00
2021,06,23,08,28,17.00
2021,06,23,08,29,17.00
2021,06,23,08,30,17.10
2021,06,23,08,31,17.10
2021,06,23,08,32,17.20
2021,06,23,08,33,17.20
2021,06,23,08,34,17.30
2021,06,23,08,35,17.40
2021,06,23,08,36,17.50
2021,06,23,08,37,17.60
2021,06,23,08,38,17.60
2021,06,23,08,39,17.70
2021,06,23,08,40,17.70
2021,06,23,08,41,17.80
2021,06,23,08,42,17.80
2021,06,23,08,43,17.80
2021,06,23,08,44,17.90
2021,06,23,08,45,17.90
2021,06,23,08,46,17.90
2021,06,23,08,47,17.80
2021,06,23,08,48,17.80
2021,06,23,08,49,17.80
2021,06,23,08,50,17.80
2021,06,23,08,51,17.80
2021,06,23,08,52,17.80
2021,06,23,08,53,17.80
2021,06,23,08,54,17.80
2021,06,23,08,55,17.80
2021,06,23,08,56,17.80
2021,06,23,08,57,17.80
2021,06,23,08,58,17.80
2021,06,23,08,59,17.80
2021,06,23,09,00,17.70
2021,06,23,09,01,17.70
2021,06,23,09,02,17.70
2021,06,23,09,03,17.70
2021,06,23,09,04,17.70
2021,06,23,09,05,17.70
2021,06,23,09,06,17.60
2021,06,23,09,07,17.60
2021,06,23,09,08,17.60
2021,06,23,09,09,17.70
2021,06,23,09,10,17.70
2021,06,23,09,11,17.70
2021,06,23,09,12,17.70
2021,06,23,09,13,17.70
2021,06,23,09,14,17.70
2021,06,23,09,15,17.70
2021,06,23,09,16,17.70
2021,06,23,09,17,17.70
2021,06,23,09,18,17.70
2021,06,23,09,19,17.60
2021,06,23,09,20,17.60
2021,06,23,09,21,17.60
2021,06,23,09,22,17.60
2021,06,23,09,23,17.60
2021,06,23,09,24,17.60
2021,06,23,09,25,17.70
2021,06,23,09,26,17.70
2021,06,23,09,27,17.80
2021,06,23,09,28,17.80
2021,06,23,09,29,17.80
2021,06,23,09,30,17.80
2021,06,23,09,31,17.80
2021,06,23,09,32,17.80
2021,06,23,09,33,17.90
2021,06,23,09,34,18.00
2021,06,23,09,35,18.10
2021,06,23,09,36,18.10
2021,06,23,09,37,18.20
2021,06,23,09,38,18.30
2021,06,23,09,39,18.30
2021,06,23,09,40,18.40
2021,06,23,09,41,18.40
2021,06,23,09,42,18.50
2021,06,23,09,43,18.50
2021,06,23,09,44,18.50
2021,06,23,09,45,18.60
2021,06,23,09,46,18.70
2021,06,23,09,47,18.70
2021,06,23,09,48,18.80
2021,06,23,09,49,18.80
2021,06,23,09,50,18.80
2021,06,23,09,51,18.80
2021,06,23,09,52,18.80
2021,06,23,09,53,18.70
2021,06,23,09,54,18.70
2021,06,23,09,55,18.70
2021,06,23,09,56,18.70
2021,06,23,09,57,18.80
2021,06,23,09,58,18.80
2021,06,23,09,59,18.90
2021,06,23,10,00,18.80
2021,06,23,10,01,18.70
2021,06,23,10,02,18.70
2021,06,23,10,03,18.70
2021,06,23,10,04,18.60
2021,06,23,10,05,18.60
2021,06,23,10,06,18.60
2021,06,23,10,07,18.60
2021,06,23,10,08,18.60
2021,06,23,10,09,18.60
2021,06,23,10,10,18.60
2021,06,23,10,11,18.60
2021,06,23,10,12,18.70
2021,06,23,10,13,18.70
2021,06,23,10,14,18.80
2021,06,23,10,15,18.80
2021,06,23,10,16,18.90
2021,06,23,10,17,19.00
2021,06,23,10,18,19.00
2021,06,23,10,19,19.10
2021,06,23,10,20,19.20
2021,06,23,10,21,19.20
2021,06,23,10,22,19.20
2021,06,23,10,23,19.30
2021,06,23,10,24,19.30
2021,06,23,10,25,19.30
2021,06,23,10,26,19.20
2021,06,23,10,27,19.30
2021,06,23,10,28,19.30
2021,06,23,10,29,19.40
2021,06,23,10,30,19.40
2021,06,23,10,31,19.50
2021,06,23,10,32,19.60
2021,06,23,10,33,19.60
2021,06,23,10,34,19.60
2021,06,23,10,35,19.60
2021,06,23,10,36,19.60
2021,06,23,10,37,19.60
2021,06,23,10,38,19.60
2021,06,23,10,39,19.60
2021,06,23,10,40,19.60
2021,06,23,10,41,19.60
2021,06,23,10,42,19.60
2021,06,23,10,43,19.60
2021,06,23,10,44,19.60
2021,06,23,10,45,19.60
2021,06,23,10,46,19.70
2021,06,23,10,47,19.70
2021,06,23,10,48,19.70
2021,06,23,10,49,19.70
2021,06,23,10,50,19.70
2021,06,23,10,51,19.70
2021,06,23,10,52,19.80
2021,06,23,10,53,19.90
2021,06,23,10,54,20.00
2021,06,23,10,55,20.00
2021,06,23,10,56,20.00
2021,06,23,10,57,19.90
2021,06,23,10,58,19.90
2021,06,23,10,59,19.90
2021,06,23,11,00,20.00
2021,06,23,11,01,20.10
2021,06,23,11,02,20.20
2021,06,23,11,03,20.20
2021,06,23,11,04,20.20
2021,06,23,11,05,20.20
2021,06,23,11,06,20.20
2021,06,23,11,07,20.20
2021,06,23,11,08,20.20
2021,06,23,11,09,20.20
2021,06,23,11,10,20.20
2021,06,23,11,11,20.10
2021,06,23,11,12,20.10
2021,06,23,11,13,20.10
2021,06,23,11,14,20.10
2021,06,23,11,15,20.10
2021,06,23,11,16,20.10
2021,06,23,11,17,20.20
2021,06,23,11,18,20.10
2021,06,23,11,19,20.10
2021,06,23,11,20,20.10
2021,06,23,11,21,20.10
2021,06,23,11,22,20.10
2021,06,23,11,23,20.00
2021,06,23,11,24,20.00
2021,06,23,11,25,20.00
2021,06,23,11,26,20.00
2021,06,23,11,27,20.00
2021,06,23,11,28,20.10
2021,06,23,11,29,20.10
2021,06,23,11,30,20.10
2021,06,23,11,31,20.10
2021,06,23,11,32,20.20
2021,06,23,11,33,20.20
2021,06,23,11,34,20.10
2021,06,23,11,35,20.10
2021,06,23,11,36,20.10
2021,06,23,11,37,20.10
2021,06,23,11,38,20.20
2021,06,23,11,39,20.20
2021,06,23,11,40,20.20
2021,06,23,11,41,20.20
2021,06,23,11,42,20.20
2021,06,23,11,43,20.30
2021,06,23,11,44,20.30
2021,06,23,11,45,20.40
2021,06,23,11,46,20.50
2021,06,23,11,47,20.50
2021,06,23,11,48,20.60
2021,06,23,11,49,20.70
2021,06,23,11,50,20.80
2021,06,23,11,51,20.90
2021,06,23,11,52,20.90
2021,06,23,11,53,20.90
2021,06,23,11,54,20.80
2021,06,23,11,55,20.60
2021,06,23,11,56,20.40
2021,06,23,11,57,20.20
2021,06,23,11,58,20.10
2021,06,23,11,59,19.90
2021,06,23,12,00,19.80
2021,06,23,12,01,19.70
2021,06,23,12,02,19.60
2021,06,23,12,03,19.60
2021,06,23,12,04,19.60
2021,06,23,12,05,19.50
2021,06,23,12,06,19.50
2021,06,23,12,07,19.40
2021,06,23,12,08,19.20
2021,06,23,12,09,19.00
2021,06,23,12,10,18.80
2021,06,23,12,11,18.60
2021,06,23,12,12,18.50
2021,06,23,12,13,18.40
2021,06,23,12,14,18.30
2021,06,23,12,15,18.30
2021,06,23,12,16,18.30
2021,06,23,12,17,18.20
2021,06,23,12,18,18.10
2021,06,23,12,19,18.00
2021,06,23,12,20,18.00
2021,06,23,12,21,17.90
2021,06,23,12,22,17.90
2021,06,23,12,23,17.80
2021,06,23,12,24,17.80
2021,06,23,12,25,17.70
2021,06,23,12,26,17.60
2021,06,23,12,27,17.60
2021,06,23,12,28,17.60
2021,06,23,12,29,17.60
2021,06,23,12,30,17.60
2021,06,23,12,31,17.60
2021,06,23,12,32,17.60
2021,06,23,12,33,17.70
2021,06,23,12,34,17.70
2021,06,23,12,35,17.70
2021,06,23,12,36,17.80
2021,06,23,12,37,17.80
2021,06,23,12,38,17.80
2021,06,23,12,39,17.80
2021,06,23,12,40,17.90
2021,06,23,12,41,18.00
2021,06,23,12,42,18.10
2021,06,23,12,43,18.10
2021,06,23,12,44,18.00
2021,06,23,12,45,17.90
2021,06,23,12,46,17.80
2021,06,23,12,47,17.80
2021,06,23,12,48,17.80
2021,06,23,12,49,17.70
2021,06,23,12,50,17.70
2021,06,23,12,51,17.60
2021,06,23,12,52,17.60
2021,06,23,12,53,17.60
2021,06,23,12,54,17.60
2021,06,23,12,55,17.50
2021,06,23,12,56,17.50
2021,06,23,12,57,17.50
2021,06,23,12,58,17.40
2021,06,23,12,59,17.40
2021,06,23,13,00,17.50
2021,06,23,13,01,17.50
2021,06,23,13,02,17.60
2021,06,23,13,03,17.60
2021,06,23,13,04,17.50
2021,06,23,13,05,17.50
2021,06,23,13,06,17.40
2021,06,23,13,07,17.40
2021,06,23,13,08,17.40
2021,06,23,13,09,17.30
2021,06,23,13,10,17.40
2021,06,23,13,11,17.40
2021,06,23,13,12,17.50
2021,06,23,13,13,17.60
2021,06,23,13,14,17.70
2021,06,23,13,15,17.80
2021,06,23,13,16,17.80
2021,06,23,13,17,17.90
2021,06,23,13,18,17.90
2021,06,23,13,19,18.00
2021,06,23,13,20,17.90
2021,06,23,13,21,17.90
2021,06,23,13,22,17.90
2021,06,23,13,23,17.90
2021,06,23,13,24,18.00
2021,06,23,13,25,18.00
2021,06,23,13,26,18.10
2021,06,23,13,27,18.00
2021,06,23,13,28,18.00
2021,06,23,13,29,18.00
2021,06,23,13,30,18.00
2021,06,23,13,31,18.10
2021,06,23,13,32,18.10
2021,06,23,13,33,18.10
2021,06,23,13,34,18.10
2021,06,23,13,35,18.10
2021,06,23,13,36,18.00
2021,06,23,13,37,17.90
2021,06,23,13,38,17.90
2021,06,23,13,39,17.90
2021,06,23,13,40,17.90
2021,06,23,13,41,17.90
2021,06,23,13,42,17.90
2021,06,23,13,43,17.90
2021,06,23,13,44,18.00
2021,06,23,13,45,18.00
2021,06,23,13,46,17.90
2021,06,23,13,47,17.90
2021,06,23,13,48,17.90
2021,06,23,13,49,17.90
2021,06,23,13,50,18.00
2021,06,23,13,51,18.10
2021,06,23,13,52,18.20
2021,06,23,13,53,18.30
2021,06,23,13,54,18.30
2021,06,23,13,55,18.30
2021,06,23,13,56,18.30
2021,06,23,13,57,18.40
2021,06,23,13,58,18.40
2021,06,23,13,59,18.40
2021,06,23,14,00,18.40
2021,06,23,14,01,18.50
2021,06,23,14,02,18.50
2021,06,23,14,03,18.50
2021,06,23,14,04,18.60
2021,06,23,14,05,18.60
2021,06,23,14,06,18.60
2021,06,23,14,07,18.70
2021,06,23,14,08,18.80
2021,06,23,14,09,18.80
2021,06,23,14,10,18.80
2021,06,23,14,11,18.90
2021,06,23,14,12,18.90
2021,06,23,14,13,18.90
2021,06,23,14,14,19.00
2021,06,23,14,15,19.00
2021,06,23,14,16,19.10
2021,06,23,14,17,19.20
2021,06,23,14,18,19.30
2021,06,23,14,19,19.30
2021,06,23,14,20,19.30
2021,06,23,14,21,19.30
2021,06,23,14,22,19.40
2021,06,23,14,23,19.30
2021,06,23,14,24,19.40
2021,06,23,14,25,19.40
2021,06,23,14,26,19.50
2021,06,23,14,27,19.40
2021,06,23,14,28,19.40
2021,06,23,14,29,19.30
2021,06,23,14,30,19.30
2021,06,23,14,31,19.20
2021,06,23,14,32,19.20
2021,06,23,14,33,19.20
2021,06,23,14,34,19.20
2021,06,23,14,35,19.20
2021,06,23,14,36,19.20
2021,06,23,14,37,19.20
2021,06,23,14,38,19.20
2021,06,23,14,39,19.20
2021,06,23,14,40,19.30
2021,06,23,14,41,19.40
2021,06,23,14,42,19.50
2021,06,23,14,43,19.50
2021,06,23,14,44,19.60
2021,06,23,14,45,19.60
2021,06,23,14,46,19.70
2021,06,23,14,47,19.60
2021,06,23,14,48,19.60
2021,06,23,14,49,19.50
2021,06,23,14,50,19.50
2021,06,23,14,51,19.50
2021,06,23,14,52,19.60
2021,06,23,14,53,19.60
2021,06,23,14,54,19.60
2021,06,23,14,55,19.60
2021,06,23,14,56,19.70
2021,06,23,14,57,19.70
2021,06,23,14,58,19.70
2021,06,23,14,59,19.60
2021,06,23,15,00,19.60
2021,06,23,15,01,19.60
2021,06,23,15,02,19.60
2021,06,23,15,03,19.50
2021,06,23,15,04,19.50
2021,06,23,15,05,19.40
2021,06,23,15,06,19.40
2021,06,23,15,07,19.30
2021,06,23,15,08,19.30
2021,06,23,15,09,19.40
2021,06,23,15,10,19.40
2021,06,23,15,11,19.40
2021,06,23,15,12,19.50
2021,06,23,15,13,19.60
2021,06,23,15,14,19.60
2021,06,23,15,15,19.70
2021,06,23,15,16,19.70
2021,06,23,15,17,19.70
2021,06,23,15,18,19.70
2021,06,23,15,19,19.70
2021,06,23,15,20,19.70
2021,06,23,15,21,19.70
2021,06,23,15,22,19.70
2021,06,23,15,23,19.70
2021,06,23,15,24,19.80
2021,06,23,15,25,19.90
2021,06,23,15,26,19.90
2021,06,23,15,27,19.80
2021,06,23,15,28,19.80
2021,06,23,15,29,19.80
2021,06,23,15,30,19.80
2021,06,23,15,31,19.70
2021,06,23,15,32,19.70
2021,06,23,15,33,19.70
2021,06,23,15,34,19.70
2021,06,23,15,35,19.70
2021,06,23,15,36,19.70
2021,06,23,15,37,19.70
2021,06,23,15,38,19.70
2021,06,23,15,39,19.70
2021,06,23,15,40,19.70
2021,06,23,15,41,19.70
2021,06,23,15,42,19.70
2021,06,23,15,43,19.70
2021,06,23,15,44,19.80
2021,06,23,15,45,19.90
2021,06,23,15,46,19.90
2021,06,23,15,47,20.00
2021,06,23,15,48,20.10
2021,06,23,15,49,20.20
2021,06,23,15,50,20.20
2021,06,23,15,51,20.20
2021,06,23,15,52,20.20
2021,06,23,15,53,20.20
2021,06,23,15,54,20.20
2021,06,23,15,55,20.10
2021,06,23,15,56,20.20
2021,06,23,15,57,20.20
2021,06,23,15,58,20.20
2021,06,23,15,59,20.20
2021,06,23,16,00,20.10
2021,06,23,16,01,20.00
2021,06,23,16,02,20.00
2021,06,23,16,03,20.00
2021,06,23,16,04,20.00
2021,06,23,16,05,20.10
2021,06,23,16,06,20.00
2021,06,23,16,07,20.00
2021,06,23,16,08,20.00
2021,06,23,16,09,20.00
2021,06,23,16,10,20.00
2021,06,23,16,11,20.00
2021,06,23,16,12,20.00
2021,06,23,16,13,20.10
2021,06,23,16,14,20.10
2021,06,23,16,15,20.20
2021,06,23,16,16,20.20
2021,06,23,16,17,20.20
2021,06,23,16,18,20.30
2021,06,23,16,19,20.20
2021,06,23,16,20,20.20
2021,06,23,16,21,20.20
2021,06,23,16,22,20.10
2021,06,23,16,23,20.10
2021,06,23,16,24,20.10
2021,06,23,16,25,20.10
2021,06,23,16,26,20.20
2021,06,23,16,27,20.30
2021,06,23,16,28,20.30
2021,06,23,16,29,20.40
2021,06,23,16,30,20.50
2021,06,23,16,31,20.60
2021,06,23,16,32,20.60
2021,06,23,16,33,20.70
2021,06,23,16,34,20.70
2021,06,23,16,35,20.80
2021,06,23,16,36,20.80
2021,06,23,16,37,20.80
2021,06,23,16,38,20.80
2021,06,23,16,39,20.90
2021,06,23,16,40,20.90
2021,06,23,16,41,20.90
2021,06,23,16,42,20.90
2021,06,23,16,43,21.00
2021,06,23,16,44,20.90
2021,06,23,16,45,20.90
2021,06,23,16,46,20.90
2021,06,23,16,47,20.90
2021,06,23,16,48,20.90
2021,06,23,16,49,20.90
2021,06,23,16,50,20.90
2021,06,23,16,51,20.90
2021,06,23,16,52,20.90
2021,06,23,16,53,20.90
2021,06,23,16,54,20.90
2021,06,23,16,55,20.90
2021,06,23,16,56,20.90
2021,06,23,16,57,20.90
2021,06,23,16,58,21.00
2021,06,23,16,59,21.00
2021,06,23,17,00,21.10
2021,06,23,17,01,21.10
2021,06,23,17,02,21.10
2021,06,23,17,03,21.00
2021,06,23,17,04,21.00
2021,06,23,17,05,20.90
2021,06,23,17,06,20.90
2021,06,23,17,07,20.90
2021,06,23,17,08,21.00
2021,06,23,17,09,20.90
2021,06,23,17,10,20.90
2021,06,23,17,11,20.90
2021,06,23,17,12,20.90
2021,06,23,17,13,20.90
2021,06,23,17,14,21.00
2021,06,23,17,15,21.00
2021,06,23,17,16,21.00
2021,06,23,17,17,20.90
2021,06,23,17,18,20.90
2021,06,23,17,19,21.00